Orbital Elements
Epoch 2022 Jan. 21.0 TT = JDT 2459600.5
T 2022 Feb. 7.59888 TT MPCW
q 2.2606655 (2000.0) P Q
n 0.14423111 Peri. 179.40480 -0.31262887 +0.91521030
a 3.6010577 Node 72.35582 -0.87259242 -0.17094909
e 0.3722218 Incl. 15.47526 -0.37529409 -0.36491988
P 6.83
From 73 observations 1994 Feb. 10-2015 June 20, mean residual 0".7.
Nongravitational parameters A1 = +0.72, A2 = +0.0624.
|